Kissimmee, FL

11:12 AM EST on December 06, 2019 (GMT -0500)
Kissimmee Municipal

Weather History for KISM - September, 2019

Change the Weather History Date:

Thursday, September 19, 2019

  Actual Average Record
Temperature  
Mean Temperature 80 °F -  
Max Temperature 88 °F 89 °F 94 °F (1980)
Min Temperature 73 °F 70 °F 57 °F (1981)
Cooling Degree Days 14    
Growing Degree Days 30 (Base 50)    
Moisture  
Dew Point 67 °F    
Average Humidity 67    
Maximum Humidity 85    
Minimum Humidity 46    
Precipitation  
Precipitation 0.00 in - - ()
Sea Level Pressure  
Sea Level Pressure 30.03 in    
Wind  
Wind Speed 6 mph (NE)    
Max Wind Speed 20 mph    
Max Gust Speed 24 mph    
Visibility 10 miles    
Events      
Averages and records for this station are not official NWS values.
T = Trace of Precipitation, MM = Missing Value Source: NWS Daily Summary

Daily Weather History Graph

Daily Weather History Graph

Search for Another Location

Airport or City:

Astronomy

Sep. 19, 2019 Rise Set
Actual Time 7:12 AM EDT 7:26 PM EDT
Civil Twilight 6:49 AM EDT 7:49 PM EDT
Nautical Twilight 6:21 AM EDT 8:16 PM EDT
Astronomical Twilight 5:53 AM EDT 8:44 PM EDT
Moon 10:59 PM EDT (9/19) 11:51 AM EDT (9/19)
Length of Visible Light 13h 00m
Length of Day
12h 13m
Waning Gibbous, 74% of the Moon is Illuminated
Sep 19
Waning Gibbous
Sep 21
Last Quarter
Sep 28
New
Oct 5
First Quarter
Oct 13
Full

Hourly Weather History & Observations

Time (EDT) Temp. Heat Index Dew Point Humidity Pressure Visibility Wind Dir Wind Speed Gust Speed Precip Events Conditions
12:56 AM 75.9 °F - 71.1 °F 85% 30.03 in 10.0 mi Calm Calm - N/A   Mostly Cloudy
1:56 AM 75.9 °F - 71.1 °F 85% 30.02 in 10.0 mi Calm Calm - N/A   Scattered Clouds
2:56 AM 75.9 °F - 71.1 °F 85% 30.01 in 10.0 mi NNE 3.5 mph - N/A   Overcast
3:56 AM 75.0 °F - 70.0 °F 84% 29.99 in 10.0 mi Calm Calm - N/A   Partly Cloudy
4:56 AM 75.0 °F - 69.1 °F 82% 29.99 in 10.0 mi NE 3.5 mph - N/A   Clear
5:56 AM 73.9 °F - 68.0 °F 82% 30.00 in 10.0 mi NE 3.5 mph - N/A   Clear
6:56 AM 73.9 °F - 68.0 °F 82% 30.01 in 9.0 mi NE 4.6 mph - N/A   Partly Cloudy
7:56 AM 75.9 °F - 68.0 °F 76% 30.03 in 10.0 mi North 3.5 mph - N/A   Mostly Cloudy
8:56 AM 79.0 °F - 68.0 °F 69% 30.04 in 10.0 mi NE 6.9 mph - N/A   Clear
9:56 AM 81.0 °F 83.0 °F 66.0 °F 60% 30.04 in 10.0 mi NE 9.2 mph - N/A   Overcast
10:56 AM 82.9 °F 85.4 °F 66.9 °F 58% 30.05 in 10.0 mi North 9.2 mph - N/A   Mostly Cloudy
11:56 AM 82.9 °F 85.0 °F 66.0 °F 56% 30.05 in 10.0 mi ENE 13.8 mph - N/A   Mostly Cloudy
12:56 PM 86.0 °F 87.6 °F 64.9 °F 49% 30.03 in 10.0 mi ENE 15.0 mph 19.6 mph N/A   Mostly Cloudy
1:56 PM 86.0 °F 86.8 °F 63.0 °F 46% 30.02 in 10.0 mi East 16.1 mph 24.2 mph N/A   Scattered Clouds
2:56 PM 86.0 °F 87.3 °F 64.0 °F 48% 30.01 in 10.0 mi ENE 12.7 mph - N/A   Scattered Clouds
3:56 PM 84.9 °F 85.9 °F 63.0 °F 48% 30.00 in 10.0 mi ENE 12.7 mph - N/A   Partly Cloudy
4:56 PM 84.0 °F 86.3 °F 66.0 °F 55% 30.00 in 10.0 mi East 19.6 mph - N/A   Mostly Cloudy
5:56 PM 82.9 °F 84.4 °F 64.0 °F 53% 30.01 in 10.0 mi ENE 16.1 mph - N/A   Scattered Clouds
6:56 PM 82.0 °F 83.1 °F 63.0 °F 52% 30.01 in 10.0 mi ENE 13.8 mph 23.0 mph N/A   Clear
7:56 PM 80.1 °F 81.9 °F 64.9 °F 60% 30.03 in 10.0 mi ENE 9.2 mph - N/A   Clear
8:56 PM 79.0 °F - 66.9 °F 66% 30.05 in 10.0 mi ENE 9.2 mph - N/A   Mostly Cloudy
9:56 PM 78.1 °F - 66.9 °F 68% 30.07 in 10.0 mi ENE 8.1 mph - N/A   Clear
10:56 PM 75.9 °F - 66.9 °F 74% 30.07 in 10.0 mi NNE 5.8 mph - N/A   Clear
11:56 PM 75.9 °F - 66.9 °F 74% 30.07 in 10.0 mi ENE 5.8 mph - N/A   Clear